Location: Wanzleben
(52.0609°N, 11.4408°E)
Time: 11:43:47
(UTC+00:00)

Cosmos 2263 Rocket - Pass Details

Date: 21 January 2021
Orbit: 825 x 847 km, 71.0° (Epoch: 24 February)

Event Time Altitude Azimuth Distance (km) Brightness Sun altitude
Rises 20:31:23 0° 301° (WNW) 3,408 6.2 -43.3°
Reaches altitude 10° 20:35:59 10° 335° (NNW) 2,468 5.0 -43.9°
Enters shadow 20:36:09 10° 337° (NNW) 2,451 5.0 -43.9°
